ONEWEB-0026 (45139 NORAD) Tracking and Keplerian Element Data

This shows tracking and keplerian element data for the satellite.

Feedback or suggestion? Click here.




ElementValue
Catalog45139
NameONEWEB-0026
Epoch Orbit24578
Epoch Day34.78805237
Epoch Year2025
RAAN120.4108
Inclination87.8899
Eccentricity0.0001952
Argument of Perigee101.0445
Mean Anonmoly259.0902
Mean Motion13.11414189
Decay Rate-3.61E-06
L11 45139U 20008J 25034.78805237 -.00000361 00000+0 -10540-2 0 9999
L22 45139 87.8899 120.4108 0001952 101.0445 259.0902 13.11414189245787



Live tracking and technical data element details for ONEWEB-0026 (NORAD 45139). ONEWEB-0026 can be tracked NOW for your location showing map with azimuth and elevation plus other details from your city location.







IsCatalogInMostPopularTable: catalog: 45139, numindb: 295
Update: records affected: 1



GetName: 45139 ONEWEB-0026

Hit Count: updated at: Fri, 16 May 2025 11:04:52 GMT